Norfolk, NE

11:34 AM CST on December 05, 2019 (GMT -0600)
Stefan Memorial

Weather History for KOFK - October, 2019

Change the Weather History Date:

Monday, October 28, 2019

  Actual Average Record
Temperature  
Mean Temperature 28 °F 46 °F  
Max Temperature 37 °F 58 °F 85 °F (1937)
Min Temperature 19 °F 34 °F 3 °F (1925)
Degree Days  
Heating Degree Days 37 19  
Month to date heating degree days 480 384  
Since 1 July heating degree days 510 526  
Cooling Degree Days 0 0  
Month to date cooling degree days 0 8  
Year to date cooling degree days 949 914  
Moisture  
Dew Point 17 °F    
Average Humidity 62    
Maximum Humidity 85    
Minimum Humidity 38    
Precipitation  
Precipitation T in 0.06 in 0.69 in (1998)
Month to date precipitation 1.93 1.93  
Year to date precipitation 23.96 25.15  
Snow  
Snow T in 0.00 in - ()
Month to date snowfall T 0.6  
Since 1 July snowfall T 0.6  
Since 1 September snowfall T 0.6  
Snow Depth 0.00 in    
Sea Level Pressure  
Sea Level Pressure 30.20 in    
Wind  
Wind Speed 8 mph (WSW)    
Max Wind Speed 15 mph    
Max Gust Speed 20 mph    
Visibility 10 miles    
Events Snow    
T = Trace of Precipitation, MM = Missing Value Source: NWS Daily Summary

Daily Weather History Graph

Daily Weather History Graph

Search for Another Location

Airport or City:

Astronomy

Oct. 28, 2019 Rise Set
Actual Time 7:57 AM CDT 6:29 PM CDT
Civil Twilight 7:28 AM CDT 6:57 PM CDT
Nautical Twilight 6:55 AM CDT 7:30 PM CDT
Astronomical Twilight 6:23 AM CDT 8:03 PM CDT
Moon 8:20 AM CDT (10/28) 7:15 PM CDT (10/28)
Length of Visible Light 11h 29m
Length of Day
10h 31m
New Moon, 0% of the Moon is Illuminated
Oct 28
New Moon
Nov 4
First Quarter
Nov 12
Full
Nov 19
Last Quarter
Nov 26
New

Hourly Weather History & Observations

Time (CDT) Temp. Windchill Dew Point Humidity Pressure Visibility Wind Dir Wind Speed Gust Speed Precip Events Conditions
12:56 AM 28.0 °F 19.3 °F 17.1 °F 63% 30.25 in 10.0 mi NW 9.2 mph - N/A   Overcast
1:56 AM 25.0 °F 17.1 °F 16.0 °F 69% 30.26 in 10.0 mi WNW 6.9 mph - N/A   Partly Cloudy
2:56 AM 25.0 °F 15.5 °F 16.0 °F 69% 30.25 in 10.0 mi WNW 9.2 mph - N/A   Mostly Cloudy
3:56 AM 21.9 °F 11.7 °F 16.0 °F 78% 30.25 in 10.0 mi WNW 9.2 mph - N/A   Clear
4:56 AM 21.0 °F 12.4 °F 15.1 °F 78% 30.23 in 10.0 mi West 6.9 mph - N/A   Clear
5:56 AM 19.0 °F 12.3 °F 14.0 °F 81% 30.24 in 10.0 mi WSW 4.6 mph - N/A   Clear
6:56 AM 21.0 °F - 16.0 °F 81% 30.24 in 10.0 mi Calm Calm - N/A   Overcast
7:56 AM 21.0 °F 16.2 °F 15.1 °F 78% 30.25 in 10.0 mi WSW 3.5 mph - N/A   Overcast
8:56 AM 24.1 °F 17.0 °F 17.1 °F 75% 30.24 in 10.0 mi West 5.8 mph - N/A   Clear
9:56 AM 28.9 °F 21.1 °F 17.1 °F 61% 30.23 in 10.0 mi WNW 8.1 mph - N/A   Clear
10:56 AM 32.0 °F 24.8 °F 15.1 °F 50% 30.23 in 10.0 mi WNW 8.1 mph - N/A   Clear
11:56 AM 34.0 °F 24.2 °F 12.0 °F 40% 30.21 in 10.0 mi NNW 15.0 mph 18.4 mph N/A   Partly Cloudy
12:56 PM 35.1 °F 27.4 °F 12.0 °F 39% 30.19 in 10.0 mi NNW 10.4 mph 16.1 mph N/A   Mostly Cloudy
1:56 PM 35.1 °F 27.9 °F 12.9 °F 40% 30.16 in 10.0 mi West 9.2 mph 19.6 mph N/A   Overcast
2:56 PM 33.1 °F 24.9 °F 12.9 °F 43% 30.14 in 10.0 mi West 10.4 mph - N/A   Overcast
3:56 PM 32.0 °F 24.8 °F 16.0 °F 52% 30.14 in 4.0 mi SSW 8.1 mph 17.3 mph 0.00 in Snow Light Snow
4:56 PM 30.9 °F 23.5 °F 19.9 °F 64% 30.15 in 10.0 mi SSW 8.1 mph - 0.00 in   Overcast
5:56 PM 30.0 °F 20.5 °F 21.9 °F 72% 30.16 in 10.0 mi SSW 11.5 mph - N/A   Overcast
6:56 PM 30.0 °F 21.7 °F 23.0 °F 75% 30.16 in 10.0 mi SW 9.2 mph - N/A   Overcast
7:56 PM 28.9 °F 20.4 °F 23.0 °F 78% 30.17 in 10.0 mi SW 9.2 mph - N/A   Overcast
8:56 PM 28.9 °F 21.1 °F 24.1 °F 82% 30.18 in 10.0 mi SSW 8.1 mph - N/A   Overcast
9:56 PM 28.9 °F 21.9 °F 24.1 °F 82% 30.19 in 10.0 mi WSW 6.9 mph - N/A   Overcast
10:56 PM 26.1 °F 18.4 °F 21.9 °F 84% 30.21 in 10.0 mi SSW 6.9 mph - N/A   Clear
11:56 PM 21.0 °F 11.4 °F 18.0 °F 88% 30.19 in 10.0 mi SSW 8.1 mph - N/A   Clear